Regional Weather Roundup
Issued by NWS

Home | Current Version | Previous Version | Text Only | Print | Product List | Glossary On
Versions: 1 2 3 4 5 6 7 8 9 10 11 12 13 14 15 16 17 18 19 20 21 22 23 24 25 26 27
000
ASPQ40 PGUM 290212
RWRPQ
WEATHER ROUNDUP FOR THE MARIANAS AND MICRONESIA
NATIONAL WEATHER SERVICE TIYAN GU
1200 PM CHST SAT APR 29 2017

GUZ001>004-290300-
MARIANA ISLANDS-

CITY           SKY/WX    TMP DP  RH WIND       PRES   REMARKS
GUAM AIRPORT   MOSUNNY   86  75  70 SE10G21   29.93F HX  95
ANDERSEN AFB   MOSUNNY   86  75  70 SE16      29.94F HX  95
ROTA AIRPORT   MOSUNNY   82  73  74 SE13      29.93F
TINIAN AP      MOSUNNY   84  75  74 SE13      29.90F HX  92
SAIPAN AP      MOSUNNY   86  73  66 SE16      29.92F HX  93

$$

PMZ161-290300-
REPUBLIC OF PALAU-

CITY           SKY/WX    TMP DP  RH WIND       PRES   REMARKS
KOROR AP       PTSUNNY   88  77  70 S6        29.85S HX 100
KOROR WSO      PTSUNNY   88  77  70 SW7       29.87F HX 100

$$

PMZ171>174-290300-
FEDERATED STATES OF MICRONESIA-

CITY           SKY/WX    TMP DP  RH WIND       PRES   REMARKS
YAP AIRPORT    PTSUNNY   84  79  84 VRB2      29.85F HX  96
CHUUK AP       MOSUNNY   88  81  79 NE9       29.84F HX 105
POHNPEI AP     CLOUDY    88  77  70 NE12      29.84F HX 100
POHNPEI WSO    CLOUDY    88  75  66 E12       29.88F HX  97
KOSRAE AP      CLOUDY    88  77  70 NE20      29.81F HX 100

$$

PMZ181-290300-
REPUBLIC OF THE MARSHALL ISLANDS-

CITY           SKY/WX    TMP DP  RH WIND       PRES   REMARKS
KWAJALEIN AP   MOSUNNY   88  73  62 E22G28    29.83F HX  96
MAJURO AP      NOT AVBL
MAJURO WSO     PTSUNNY   81  77  89 E24       29.78F

$$





USA.gov is the U.S. government's official web portal to all federal, state and local government web resources and services.